Location: Pescara
(42.4670°N, 14.2170°E)
Time: 17:24:59
(UTC+02:00)

ISS - Pass Details

Date: 15 May 2021
Orbit: 417 x 422 km, 51.6° (Epoch: 18 June)

Event Time Altitude Azimuth Distance (km) Brightness Sun altitude
Rises 03:39:49 0° 306° (NW) 2,374 0.0 -18.4°
Reaches altitude 10° 03:41:57 10° 311° (NW) 1,508 -0.9 -18.1°
Maximum altitude 03:45:17 54° 30° (NNE) 521 -3.0 -17.7°
Drops below altitude 10° 03:48:36 10° 108° (ESE) 1,504 -0.7 -17.3°
Sets 03:50:44 0° 113° (ESE) 2,366 0.3 -17.1°
